When you browse on this site, cookies collect data to enhance your experience and personalize the content and advertising you see.
Visit our Privacy Policy to learn more. By continuing to use the site, you agree to this use of cookies and data.
  • In Austria
  • List of Countries
  • For 7 days
  • Water Temperature
  • Satellite Maps
  • Weather Map
  • News
  • Weather Widgets
  • user-avatar
    Login

    Hourly Weather Reading

    Today, 13 December, Thursday

    Time Temperature Precipitation Wind Pressure Humidity
    00:00 +1°C° 0 mm 6 mps 758 mmHg 77%
    01:00 +1°C° 0 mm 6 mps 758 mmHg 78%
    02:00 +1°C° 0 mm 6 mps 758 mmHg 78%
    03:00 +1°C° 0 mm 6 mps 757 mmHg 79%
    04:00 0°C° 0 mm 7 mps 757 mmHg 78%
    05:00 0°C° 0 mm 7 mps 757 mmHg 78%
    06:00 0°C° 0 mm 7 mps 756 mmHg 77%
    07:00 0°C° 0 mm 7 mps 757 mmHg 76%
    08:00 0°C° 0 mm 7 mps 757 mmHg 75%
    09:00 0°C° 0 mm 7 mps 757 mmHg 75%
    10:00 +2°C° 0 mm 7 mps 757 mmHg 72%
    11:00 +2°C° 0 mm 7 mps 757 mmHg 70%
    12:00 +3°C° 0 mm 7 mps 758 mmHg 68%
    13:00 +3°C° 0 mm 6 mps 758 mmHg 68%
    14:00 +2°C° 0 mm 6 mps 758 mmHg 68%
    15:00 +2°C° 0 mm 5 mps 758 mmHg 69%
    16:00 +2°C° 0 mm 5 mps 758 mmHg 69%
    17:00 +1°C° 0 mm 5 mps 758 mmHg 70%
    18:00 +1°C° 0 mm 5 mps 759 mmHg 71%
    19:00 0°C° 0 mm 4 mps 759 mmHg 73%
    20:00 0°C° 0 mm 4 mps 760 mmHg 75%
    21:00 +1°C° 0 mm 3 mps 760 mmHg 77%
    22:00 0°C° 0 mm 3 mps 760 mmHg 78%
    23:00 0°C° 0 mm 3 mps 761 mmHg 79%

    Tomorrow, 14 December, Friday

    Time Temperature Precipitation Wind Pressure Humidity
    00:00 0°C° 0 mm 3 mps 761 mmHg 81%
    01:00 -1°C° 0 mm 3 mps 761 mmHg 81%
    02:00 -1°C° 0 mm 3 mps 762 mmHg 80%
    03:00 -1°C° 0 mm 3 mps 762 mmHg 80%
    04:00 -1°C° 0 mm 3 mps 762 mmHg 81%
    05:00 -1°C° 0 mm 2 mps 762 mmHg 81%
    06:00 -1°C° 0 mm 2 mps 762 mmHg 81%
    07:00 -1°C° 0 mm 2 mps 762 mmHg 80%
    08:00 -1°C° 0 mm 2 mps 763 mmHg 79%
    09:00 +1°C° 0 mm 1 mps 763 mmHg 79%
    10:00 +2°C° 0 mm 2 mps 763 mmHg 74%
    11:00 +2°C° 0 mm 3 mps 763 mmHg 70%
    12:00 +3°C° 0 mm 3 mps 763 mmHg 66%
    13:00 +3°C° 0 mm 3 mps 763 mmHg 68%
    14:00 +3°C° 0 mm 2 mps 763 mmHg 70%
    15:00 +3°C° 0 mm 2 mps 763 mmHg 72%
    16:00 +2°C° 0 mm 2 mps 763 mmHg 75%
    17:00 +2°C° 0 mm 2 mps 762 mmHg 77%
    18:00 0°C° 0 mm 3 mps 762 mmHg 80%
    19:00 0°C° 0 mm 3 mps 762 mmHg 80%
    20:00 0°C° 0 mm 3 mps 762 mmHg 79%
    21:00 0°C° 0 mm 3 mps 762 mmHg 79%
    22:00 0°C° 0 mm 3 mps 762 mmHg 77%
    23:00 0°C° 0 mm 4 mps 762 mmHg 76%

    Day after tomorrow, 15 December, Saturday

    Time Temperature Precipitation Wind Pressure Humidity
    00:00 0°C° 0 mm 4 mps 762 mmHg 75%
    01:00 0°C° 0 mm 4 mps 761 mmHg 75%
    02:00 0°C° 0 mm 4 mps 761 mmHg 75%
    03:00 +1°C° 0 mm 5 mps 761 mmHg 75%
    04:00 +1°C° 0 mm 5 mps 760 mmHg 75%
    05:00 +1°C° 0 mm 6 mps 759 mmHg 74%
    06:00 +1°C° 0 mm 6 mps 759 mmHg 74%
    07:00 0°C° 0 mm 7 mps 758 mmHg 73%
    08:00 0°C° 0 mm 7 mps 758 mmHg 72%
    09:00 +1°C° 0 mm 8 mps 757 mmHg 71%
    10:00 +1°C° 0.1 mm 8 mps 756 mmHg 72%
    11:00 +1°C° 0.1 mm 8 mps 756 mmHg 74%
    12:00 +2°C° 0.1 mm 9 mps 755 mmHg 75%
    13:00 +2°C° 0.3 mm 9 mps 754 mmHg 80%
    14:00 +2°C° 0.3 mm 8 mps 753 mmHg 84%
    15:00 +2°C° 0.3 mm 8 mps 752 mmHg 89%
    16:00 +3°C° 0.5 mm 9 mps 751 mmHg 90%
    17:00 +3°C° 0.5 mm 9 mps 750 mmHg 92%
    18:00 +5°C° 0.5 mm 9 mps 749 mmHg 93%
    19:00 +6°C° 0.8 mm 9 mps 747 mmHg 93%
    20:00 +8°C° 0.8 mm 10 mps 746 mmHg 93%
    21:00 +9°C° 0.8 mm 10 mps 745 mmHg 93%
    22:00 +9°C° 0.4 mm 11 mps 744 mmHg 88%
    23:00 +9°C° 0.4 mm 11 mps 743 mmHg 82%

    16 December, Sunday

    Time Temperature Precipitation Wind Pressure Humidity
    00:00 +9°C° 0.4 mm 12 mps 742 mmHg 77%
    01:00 +8°C° 0 mm 12 mps 742 mmHg 75%
    02:00 +8°C° 0 mm 11 mps 743 mmHg 74%
    03:00 +7°C° 0 mm 11 mps 743 mmHg 72%
    04:00 +7°C° 0 mm 10 mps 744 mmHg 72%
    05:00 +6°C° 0 mm 9 mps 746 mmHg 72%
    06:00 +5°C° 0 mm 8 mps 747 mmHg 72%
    07:00 +5°C° 0 mm 7 mps 747 mmHg 74%
    08:00 +5°C° 0 mm 7 mps 748 mmHg 75%
    09:00 +5°C° 0 mm 7 mps 749 mmHg 76%
    10:00 +5°C° 0 mm 7 mps 750 mmHg 73%
    11:00 +7°C° 0 mm 6 mps 750 mmHg 71%
    12:00 +8°C° 0 mm 6 mps 750 mmHg 69%
    13:00 +8°C° 0.1 mm 6 mps 750 mmHg 72%
    14:00 +7°C° 0.1 mm 5 mps 750 mmHg 74%
    15:00 +7°C° 0.1 mm 4 mps 751 mmHg 77%
    16:00 +7°C° 0.5 mm 4 mps 751 mmHg 81%
    17:00 +7°C° 0.5 mm 3 mps 751 mmHg 85%
    18:00 +7°C° 0.5 mm 3 mps 751 mmHg 89%
    19:00 +5°C° 0.5 mm 3 mps 751 mmHg 90%
    20:00 +5°C° 0.5 mm 3 mps 751 mmHg 90%
    21:00 +6°C° 0.5 mm 2 mps 751 mmHg 91%
    22:00 +5°C° 0.1 mm 3 mps 752 mmHg 91%
    23:00 +4°C° 0.1 mm 3 mps 752 mmHg 90%

    17 December, Monday

    Time Temperature Precipitation Wind Pressure Humidity
    00:00 +4°C° 0.1 mm 3 mps 752 mmHg 90%
    01:00 +4°C° 0 mm 3 mps 752 mmHg 90%
    02:00 +3°C° 0 mm 3 mps 753 mmHg 90%
    03:00 +3°C° 0 mm 3 mps 753 mmHg 90%
    04:00 +3°C° 0 mm 3 mps 754 mmHg 90%
    05:00 +3°C° 0 mm 3 mps 754 mmHg 90%
    06:00 +3°C° 0 mm 3 mps 755 mmHg 91%
    07:00 +3°C° 0 mm 3 mps 755 mmHg 90%
    08:00 +3°C° 0 mm 3 mps 756 mmHg 90%
    09:00 +3°C° 0 mm 3 mps 757 mmHg 90%
    10:00 +4°C° 0 mm 3 mps 757 mmHg 86%
    11:00 +7°C° 0 mm 3 mps 757 mmHg 82%
    12:00 +7°C° 0 mm 4 mps 757 mmHg 78%
    13:00 +8°C° 0 mm 3 mps 757 mmHg 80%
    14:00 +8°C° 0 mm 3 mps 757 mmHg 82%
    15:00 +7°C° 0 mm 3 mps 756 mmHg 83%
    16:00 +6°C° 0 mm 4 mps 756 mmHg 85%
    17:00 +6°C° 0 mm 4 mps 756 mmHg 86%
    18:00 +6°C° 0 mm 5 mps 756 mmHg 88%
    19:00 +6°C° 0 mm 5 mps 755 mmHg 87%
    20:00 +7°C° 0 mm 6 mps 755 mmHg 87%
    21:00 +8°C° 0 mm 7 mps 755 mmHg 86%
    22:00 +8°C° 0.1 mm 7 mps 754 mmHg 87%
    23:00 +9°C° 0.1 mm 8 mps 754 mmHg 87%

    18 December, Tuesday

    Time Temperature Precipitation Wind Pressure Humidity
    00:00 +9°C° 0.1 mm 8 mps 753 mmHg 88%
    01:00 +9°C° 0.5 mm 8 mps 752 mmHg 88%
    02:00 +8°C° 0.5 mm 9 mps 752 mmHg 88%
    03:00 +10°C° 0.5 mm 9 mps 751 mmHg 88%
    04:00 +8°C° 0.4 mm 9 mps 750 mmHg 86%
    05:00 +8°C° 0.4 mm 10 mps 749 mmHg 84%
    06:00 +8°C° 0.4 mm 10 mps 748 mmHg 83%
    07:00 +8°C° 0.3 mm 10 mps 747 mmHg 81%
    08:00 +8°C° 0.3 mm 11 mps 747 mmHg 80%
    09:00 +8°C° 0.3 mm 12 mps 746 mmHg 79%
    10:00 +8°C° 1.6 mm 12 mps 745 mmHg 80%
    11:00 +7°C° 1.6 mm 12 mps 745 mmHg 81%
    12:00 +7°C° 1.6 mm 12 mps 744 mmHg 83%
    13:00 +7°C° 1.9 mm 9 mps 744 mmHg 85%
    14:00 +8°C° 1.9 mm 7 mps 743 mmHg 88%
    15:00 +8°C° 1.9 mm 5 mps 743 mmHg 90%
    16:00 +7°C° 0.2 mm 4 mps 743 mmHg 89%
    17:00 +7°C° 0.2 mm 4 mps 743 mmHg 89%
    18:00 +7°C° 0.2 mm 3 mps 743 mmHg 88%
    19:00 +6°C° 0 mm 4 mps 744 mmHg 87%
    20:00 +6°C° 0 mm 4 mps 744 mmHg 87%
    21:00 +6°C° 0 mm 4 mps 744 mmHg 86%
    22:00 +6°C° 0.2 mm 4 mps 744 mmHg 86%
    23:00 +6°C° 0.2 mm 5 mps 744 mmHg 87%
    Show more